Location: Gloden
(48.4833°N, 15.3167°E)
Time: 06:32:11
(UTC+00:00)

PSLV R/B - Pass Details

Date: 15 December 2019
Orbit: 504 x 580 km, 97.8° (Epoch: 25 January)

Event Time Altitude Azimuth Distance (km) Brightness Sun altitude
Rises 04:40:15 0° 8° (N) 2,806 7.4 -19.3°
Reaches altitude 10° 04:42:28 10° 2° (N) 1,906 6.4 -19.0°
Maximum altitude 04:46:26 45° 290° (WNW) 794 4.1 -18.3°
Drops below altitude 10° 04:50:21 10° 217° (SW) 1,891 6.3 -17.7°
Sets 04:52:33 0° 211° (SSW) 2,781 7.3 -17.4°
